Location: Bannatyne
(13.0833°N, 59.5333°W)
Time: 07:16:27
(UTC+00:00)

Envisat - Pass Details

Date: 23 June 2021
Orbit: 764 x 766 km, 98.2° (Epoch: 03 August)

Event Time Altitude Azimuth Distance (km) Brightness Sun altitude
Rises 09:02:44 0° 12° (NNE) 3,220 6.8 -7.6°
Reaches altitude 10° 09:05:02 10° 13° (NNE) 2,294 6.1 -7.1°
Maximum altitude 09:10:06 87° 102° (ESE) 767 3.1 -6.0°
Drops below altitude 10° 09:15:09 10° 191° (SSW) 2,292 5.1 -4.9°
Sets 09:17:27 0° 192° (SSW) 3,217 5.9 -4.4°
